CW6871 Weather Reports


time (UTC)temp
F
wind
direction
speed
knots
gust
knots
rain 1hr
in
rain 24hr
in
rain mn
in
humidity
%
barometer
mb
20260503211123 79 35 0.0 0.0 0.00 0.00 0.00 40 1011.3
20260503210118 79 268 0.0 0.0 0.00 0.00 0.00 40 1011.4
20260503205151 78 50 0.0 0.0 0.00 0.00 0.00 40 1011.4
20260503204123 78 11 0.0 0.0 0.00 0.00 0.00 40 1011.7
20260503202115 76 93 0.0 0.0 0.00 0.00 0.00 45 1011.8
20260503201124 76 360 0.0 0.0 0.00 0.00 0.00 44 1012.1
20260503200142 75 40 0.0 0.0 0.00 0.00 0.00 47 1012.2
20260503195150 75 17 0.0 0.0 0.00 0.00 0.00 46 1012.5
20260503194138 75 17 0.0 0.0 0.00 0.00 0.00 46 1012.5
20260503193146 74 23 0.0 0.0 0.00 0.00 0.00 51 1012.6
20260503192153 73 11 0.0 0.0 0.00 0.00 0.00 50 1012.8
20260503191117 73 55 0.0 0.0 0.00 0.00 0.00 52 1012.8
20260503185145 73 20 0.0 0.0 0.00 0.00 0.00 50 1013.1
20260503184146 73 341 0.0 0.0 0.00 0.00 0.00 53 1013.1
20260503183156 72 290 0.0 0.0 0.00 0.00 0.00 50 1013.3
20260503182143 71 12 0.0 0.0 0.00 0.00 0.00 53 1013.3
20260503181111 71 339 0.0 0.0 0.00 0.00 0.00 53 1013.4
20260503180126 71 343 0.0 0.0 0.00 0.00 0.00 51 1013.3
20260503175142 71 344 0.0 0.0 0.00 0.00 0.00 55 1013.4
20260503174153 70 3 0.0 0.0 0.00 0.00 0.00 56 1013.4
20260503173137 70 6 0.0 0.0 0.00 0.00 0.00 55 1013.5
20260503172133 69 94 0.0 0.0 0.00 0.00 0.00 56 1013.6
20260503171150 69 16 0.0 0.0 0.00 0.00 0.00 59 1013.7
20260503170133 68 50 0.0 0.0 0.00 0.00 0.00 61 1013.8
20260503150136 60 92 0.0 0.0 0.00 0.00 0.00 79 1014.2
20260503140138 54 344 0.0 0.0 0.00 0.00 0.00 86 1014.0
20260503131110 51 344 0.0 0.0 0.00 0.00 0.00 89 1013.8
20260503130149 51 344 0.0 0.0 0.00 0.00 0.00 88 1013.7
20260503120150 52 346 0.0 0.0 0.00 0.00 0.00 85 1014.0
20260503110131 53 347 0.0 0.0 0.00 0.00 0.00 82 1014.1
20260503090113 55 347 0.0 0.0 0.00 0.00 0.00 75 1014.5
20260503080128 56 347 0.0 0.0 0.00 0.00 0.00 72 1014.3
20260503072123 57 347 0.0 0.0 0.00 0.00 0.00 70 1014.2
20260503071120 57 347 0.0 0.0 0.00 0.00 0.00 68 1014.0
20260503070150 58 347 0.0 0.0 0.00 0.00 0.00 68 1014.0
20260503060137 59 346 0.0 0.0 0.00 0.00 0.00 64 1013.9
20260503053142 60 347 0.0 0.0 0.00 0.00 0.00 63 1014.0
20260503052134 60 346 0.0 0.0 0.00 0.00 0.00 63 1013.9
20260503051143 60 346 0.0 0.0 0.00 0.00 0.00 62 1013.9
20260503045122 61 347 0.0 0.0 0.00 0.00 0.00 60 1013.9
20260503043123 63 347 0.0 0.0 0.00 0.00 0.00 57 1013.7
20260503042150 63 347 0.0 0.0 0.00 0.00 0.00 56 1013.6
20260503041140 64 347 0.0 0.0 0.00 0.00 0.00 55 1013.4
20260503040138 65 346 0.0 0.0 0.00 0.00 0.00 53 1013.3
20260503034122 66 347 0.0 0.0 0.00 0.00 0.00 51 1013.1
20260503033146 66 356 0.0 0.0 0.00 0.00 0.00 51 1013.0
20260503032124 67 352 0.0 0.0 0.00 0.00 0.00 51 1012.8
20260503030134 68 301 0.0 0.0 0.00 0.00 0.00 50 1012.7
20260503025118 68 348 0.0 0.0 0.00 0.00 0.00 50 1012.6
20260503024137 68 335 0.0 0.0 0.00 0.00 0.00 50 1012.6
20260503023115 69 16 0.0 0.0 0.00 0.00 0.00 50 1012.4
20260503022109 69 347 0.0 0.0 0.00 0.00 0.00 50 1012.6
20260503021110 70 15 0.0 0.0 0.00 0.00 0.00 52 1012.6
20260503020111 70 6 0.0 0.0 0.00 0.00 0.00 55 1012.7
20260503015113 70 347 0.0 0.0 0.00 0.00 0.00 55 1012.7
20260503014144 70 342 0.0 0.0 0.00 0.00 0.00 55 1012.6
20260503013144 71 49 0.0 0.0 0.00 0.00 0.00 54 1012.5
20260503012121 71 357 0.0 0.0 0.00 0.00 0.00 54 1012.7
20260503011128 71 341 0.0 0.0 0.00 0.00 0.00 54 1012.7
20260503010140 71 49 0.0 0.0 0.00 0.00 0.00 54 1012.7
20260503005126 72 93 0.0 0.0 0.00 0.00 0.00 54 1012.8
20260503004134 72 308 0.0 0.0 0.00 0.00 0.00 55 1012.9
20260503003123 72 131 0.0 0.0 0.00 0.00 0.00 56 1012.8
20260503002143 72 318 0.0 0.0 0.00 0.00 0.00 55 1012.8
20260503001142 72 135 0.0 0.0 0.00 0.00 0.00 56 1012.8
20260503000110 72 347 0.0 0.0 0.00 0.00 0.00 56 1012.9
20260502235107 72 344 0.0 0.0 0.00 0.00 0.00 56 1013.0
20260502234108 72 26 0.0 0.0 0.00 0.00 0.00 57 1013.1
20260502233108 73 13 0.0 0.0 0.00 0.00 0.00 57 1013.2
20260502232139 73 20 0.0 0.0 0.00 0.00 0.00 55 1013.4
20260502231139 73 305 0.0 0.0 0.00 0.00 0.00 55 1013.6
20260502230133 73 190 0.0 0.0 0.00 0.00 0.00 56 1013.8
20260502225139 73 50 0.0 0.0 0.00 0.00 0.00 53 1013.8
20260502223126 73 4 0.0 0.0 0.00 0.00 0.00 52 1014.0
20260502221112 72 26 0.0 0.0 0.00 0.00 0.00 52 1014.2
20260502220116 72 32 0.0 0.0 0.00 0.00 0.00 52 1014.5
20260502215111 72 35 0.0 0.0 0.00 0.00 0.00 53 1014.6
20260502214112 71 6 0.0 0.0 0.00 0.00 0.00 54 1014.6
20260502213148 72 27 0.0 0.0 0.00 0.00 0.00 57 1014.6